Location: Marcé
(47.5801°N, 0.3280°W)
Time: 22:53:10
(UTC+01:00)

Transit 2A - Pass Details

Date: 01 December 2021
Orbit: 591 x 967 km, 66.7° (Epoch: 23 January)

Event Time Altitude Azimuth Distance (km) Brightness Sun altitude
Rises 04:47:34 0° 281° (W) 3,465 - -36.4°
Reaches altitude 10° 04:51:01 10° 302° (WNW) 2,592 - -35.9°
Maximum altitude 04:54:48 17° 340° (NNW) 2,203 - -35.2°
Exits shadow 04:57:12 14° 6° (N) 2,411 8.6 -34.8°
Drops below altitude 10° 04:58:42 10° 19° (NNE) 2,692 9.0 -34.6°
Sets 05:02:24 0° 39° (NE) 3,661 10.0 -34.0°
